Location: Newark
(23.3970°S, 47.6010°W)
Time: 22:29:41
(UTC+00:00)

Tiros 1 despin weight - All Passes

Search period start: 18 February 2020 00:00
Search period end: 28 February 2020 00:00
Orbit: 594 x 642 km, 48.2° (Epoch: 18 February)

Date Brightness Start Highest point End Pass type
(mag) Time Alt. Az. Time Alt. Az. Time Alt. Az.
18 Feb - 00:39:17 10° SW 00:43:59 88° NW 00:48:33 10° NE visible
18 Feb - 14:39:20 10° NNW 14:43:24 31° NE 14:47:32 10° ESE daylight
18 Feb - 16:20:50 10° W 16:24:54 29° SW 16:29:03 10° SSE daylight
18 Feb - 23:14:53 10° SSW 23:18:50 26° SE 23:22:43 10° E visible
19 Feb - 00:56:09 10° WSW 01:00:24 36° NW 01:04:34 10° NNE visible
19 Feb - 14:55:12 10° NW 14:59:48 77° NE 15:04:30 10° SE daylight
19 Feb - 16:38:59 10° WSW 16:41:46 15° SSW 16:44:34 10° S daylight
19 Feb - 23:30:54 10° SW 23:35:32 56° SE 23:40:02 10° ENE visible
20 Feb - 01:14:06 10° W 01:16:42 15° NW 01:19:16 10° NNW visible
20 Feb - 13:31:53 10° N 13:35:04 19° NE 13:38:19 10° E daylight
20 Feb - 15:11:55 10° WNW 15:16:22 45° SW 15:20:53 10° SSE daylight
20 Feb - 22:06:58 10° S 22:10:11 18° SE 22:13:23 10° ESE visible
20 Feb - 23:47:24 10° SW 23:52:01 61° NW 23:56:33 10° NNE visible
21 Feb - 13:47:03 10° NNW 13:51:24 45° NE 13:55:51 10° ESE daylight
21 Feb - 15:29:28 10° W 15:33:05 22° SW 15:36:46 10° SSE daylight
21 Feb - 22:22:39 10° SSW 22:27:00 35° SE 22:31:15 10° ENE visible
22 Feb - 00:04:35 10° WSW 00:08:24 25° NW 00:12:08 10° N visible
22 Feb - 12:25:43 10° NE 12:26:47 11° NE 12:27:50 10° ENE daylight
22 Feb - 14:03:17 10° NW 14:07:52 74° SW 14:12:33 10° SE daylight
22 Feb - 15:48:20 10° SW 15:50:02 12° SSW 15:51:43 10° S daylight
22 Feb - 20:59:26 10° S 21:01:29 13° SSE 21:03:31 10° ESE daylight
22 Feb - 22:38:53 10° SW 22:43:36 81° SE 22:48:14 10° NE visible
23 Feb - 12:39:14 10° N 12:43:04 27° NE 12:46:57 10° ESE daylight
23 Feb - 14:20:21 10° WNW 14:24:30 33° SW 14:28:43 10° SSE daylight
23 Feb - 21:14:35 10° SSW 21:18:24 24° SE 21:22:10 10° E daylight
23 Feb - 22:55:37 10° WSW 23:00:03 41° NW 23:04:23 10° NNE visible
24 Feb - 12:54:56 10° NW 12:59:26 66° NE 13:04:03 10° SE daylight
24 Feb - 14:38:19 10° WSW 14:41:19 17° SW 14:44:20 10° S daylight
24 Feb - 21:30:32 10° SSW 21:35:07 49° SE 21:39:38 10° ENE daylight
24 Feb - 23:13:17 10° W 23:16:22 17° NW 23:19:25 10° NNW visible
25 Feb - 11:31:59 10° NNE 11:34:45 16° NE 11:37:33 10° E daylight
25 Feb - 13:11:31 10° WNW 13:15:57 51° SW 13:20:31 10° SSE daylight
25 Feb - 20:06:44 10° S 20:09:45 16° SE 20:12:43 10° ESE daylight
25 Feb - 21:46:56 10° SW 21:51:39 71° NW 21:56:16 10° NE daylight
26 Feb - 11:46:52 10° NNW 11:51:04 38° NE 11:55:21 10° ESE daylight
26 Feb - 13:28:55 10° W 13:32:39 24° SW 13:36:28 10° SSE daylight
26 Feb - 20:22:20 10° SSW 20:26:34 32° SE 20:30:45 10° ENE daylight
26 Feb - 22:03:59 10° WSW 22:08:03 29° NW 22:12:02 10° N visible
27 Feb - 12:02:58 10° NW 12:07:30 85° SW 12:12:08 10° SE daylight
27 Feb - 13:47:29 10° WSW 13:49:34 13° SSW 13:51:39 10° S daylight
27 Feb - 18:59:27 10° S 19:01:00 11° SSE 19:02:34 10° SE daylight
27 Feb - 20:38:29 10° SW 20:43:12 71° SE 20:47:51 10° NE daylight
27 Feb - 22:22:36 10° WNW 22:24:19 12° NW 22:26:02 10° NNW visible
